Showing default

KINEIS-4D, 63302

Orbit data source: Space-Track

KINEIS-4D, 63302 is a French payload satellite in SSO that was launched on Tue, 18 Mar 2025 UTC via an ELECTRON launch vehicle from the Rocket Lab Launch Complex (RLLC). Payload-class satellites include a variety of spacecraft equipped with specific instruments for various scientific and technological missions. These include communications satellites like Starlink; space stations such as the ISS; scientific satellites like the Hubble; Earth observation satellites from companies like Planet Labs, Umbra, and HawkEye 360; GPS; miniature CubeSats for education and research; and military/defense satellites.

Loading next visibility...
Identifier
63302, 2025-056C
Orbit
SSO
Last TLE update
5 hours ago
Origin
Manufacturer
KINEIS
Mission
Operational Commercial Communications
Bus & Motor
CUBESAT 16U, Unknown motor
Mass
28 kg wet, 28 kg dry
Launch date (UTC)
2025-03-18 (3 months ago)
Launch vehicle
ELECTRON
Launch site
Rocket Lab Launch Complex (RLLC)
Object type
Payload
Rocket body
Debris
Shape & HBR
Box + 2 Pan + 1 Ant, 1.6 m
Radar Cross Section
0.229 m², Medium (>0.1 m² and < 1m²)

Expand to show TLE details & history

TLE from 5 hours ago
0 KINEIS-4D
1 63302U 25056C   25182.17469654  .00001436  00000-0  23504-3 0  9993
2 63302  97.9840 307.7715 0002298  53.4544 306.6874 14.72278541 15482
Epoch: 2025-07-01T04:11Z
TLE epoch observation values (Epoch: 2025-07-01T04:11:33.781Z)
Latitude
-0.00007°
Longitude
-34.59318°
Altitude
655.847 km
Speed
7.53 km/s
True Right ascension
20h 31m 05s
True Declination
0° 00' 00"
Sunlit
Object was in full shadow at epoch
Visualization orbit readout
Latitude
71.36689°
Longitude
170.06564°
Altitude
665.162 km
Speed
7.532 km/s
Apparent Right ascension
09h 30m 30s
Apparent Declination
19° 57' 30"
Sunlit
Object is in daylight
Visualization observer readout
Local Sidereal Time
21:12:30
Azimuth
355.117° N
Elevation
-29.979°
Doppler factor
1
Orbital elements
Apogee altitude
652.474 km
Perigee altitude
649.243 km
Semi-major axis
7,028.995 km
Eccentricity
0.00023
Inclination
97.984°
RAAN
307.7715°
Arg. of periapsis
53.4544°
True anomaly
Unknown
Mean anomaly
306.6874°
Eccentric anomaly
Unknown
Mean motion
3.68301 °/min
Orbital period
97.75 mins
BSTAR
0.00023504
Loading maneuver chart data...
Loading SW <> Apogee altitude chart data...
Loading historical data...
Loading historical data...
Loading historical data...
Loading historical data...
Loading historical data...
Loading historical data...
Loading historical data...

KINEIS-4D Visibility forecast

Observer location: undefined°, undefined°

Span
Click to sort rows by Start time (UTC) header in descending order
Start Az.
Max El. time (UTC)
Max El. Az.
Max El.
End time (UTC)
End Az.
8 mins2025-07-01 21:04:11.977Z19.217° NNE2025-07-01 21:08:11.977Z94.568° ESE42.441°2025-07-01 21:12:11.977Z183.097° SSW
7 mins2025-07-02 08:03:11.977Z146.076° SSE2025-07-02 08:06:11.977Z90.213° ESE38.454°2025-07-02 08:10:11.977Z359.218° N
|